Regional Weather Roundup
Issued by NWS

Home | Current Version | Previous Version | Graphics & Text | Print | Product List | Glossary On
Versions: 1 2 3 4 5 6 7 8 9 10 11 12 13 14 15 16 17 18 19 20 21 22 23 24 25 26 27 28 29 30 31 32 33 34 35 36 37 38 39 40 41 42 43 44 45 46 47 48 49 50
000
ASUS43 KBIS 230210
RWRND
NORTH DAKOTA REGIONAL WEATHER ROUNDUP
NATIONAL WEATHER SERVICE EASTERN NORTH DAKOTA/GRAND FORKS ND
900 PM CDT SUN APR 22 2018

  NOTE: "FAIR" INDICATES FEW OR NO CLOUDS BELOW 12,000 FEET WITH NO
  SIGNIFICANT WEATHER AND/OR OBSTRUCTIONS TO VISIBILITY.

NDZ001>003-009>011-017-230300-
...NORTHWEST NORTH DAKOTA...

CITY           SKY/WX    TMP DP  RH WIND       PRES   REMARKS
WILLISTON      FAIR      55  27  34 NW12      30.10R
MINOT          FAIR      57  33  40 S5        30.08R
MINOT AFB      NOT AVBL
$$

NDZ018>021-031>035-040>046-230300-
...SOUTHWEST NORTH DAKOTA...

CITY           SKY/WX    TMP DP  RH WIND       PRES   REMARKS
BISMARCK       CLOUDY    62  38  40 VRB3G22   30.09R
DICKINSON      FAIR      55  25  31 NE6       30.08R
GARRISON         N/A     49  35  58 SE5       30.09S
HETTINGER      FAIR      57  31  37 N9        30.08R
$$

NDZ004>008-012>016-024-026-027-054-230300-
...NORTHEAST NORTH DAKOTA...

CITY           SKY/WX    TMP DP  RH WIND       PRES   REMARKS
GRAND FORKS    CLOUDY    54  46  74 S10       30.09F
GRAND FORKS AF CLOUDY    56  44  64 S10       30.09S
DEVILS LAKE    CLOUDY    55  41  59 E3        30.10R
$$

NDZ022-023-025-028>030-036>039-047>053-230300-
...SOUTHEAST NORTH DAKOTA...

CITY           SKY/WX    TMP DP  RH WIND       PRES   REMARKS
JAMESTOWN      FAIR      52  40  63 S10       30.10R
FARGO          FAIR      56  41  57 S14G23    30.15S
WAHPETON       FAIR      50  37  62 S12       30.19S
$$




USA.gov is the U.S. government's official web portal to all federal, state and local government web resources and services.